Dewpoint
64 64 65 66 64 63 62 62 62 62 61 60 61 61 62 63 64 64 66 66 67 70 71 70 69 69 69 69 69 68 68 67 66 66 65 65 64 63 62 62 61 60 60
64 63 65 65 64 63 62 61 61 61 61 60 60 62 63 62 63 64 65 66 65 67 70 71 70 69 69 68 69 68 68 67 66 66 65 64 63 62 62 60 60 60 59
63 62 64 64 63 62 61 61 61 61 61 61 61 62 62 62 62 64 64 64 65 64 66 68 69 69 69 69 68 68 67 67 66 65 65 63 62 61 60 59 58 57 57
63 63 63 63 63 62 61 60 61 61 61 61 62 62 63 62 62 62 65 64 64 64 64 64 66 68 69 69 68 68 67 67 66 65 64 62 61 60 59 57 56 56 55
63 64 63 64 63 62 62 61 61 62 62 62 61 62 63 62 62 62 63 65 64 64 64 63 63 64 66 68 68 68 67 67 66 65 63 61 60 58 57 55 55 54 54
64 64 65 63 64 63 62 62 62 63 62 62 62 61 61 61 62 62 62 63 63 64 64 63 63 63 63 65 67 68 67 67 66 65 63 61 59 57 55 55 55 55 54
65 64 66 65 65 64 62 62 62 62 62 62 61 59 58 59 59 60 60 61 61 61 61 62 63 62 63 63 65 67 67 67 66 65 63 61 58 56 55 55 55 53 53
66 65 64 66 66 66 64 64 63 62 62 62 59 57 57 57 57 58 58 58 58 57 59 61 61 62 63 64 64 65 66 66 66 65 63 61 58 56 55 54 53 53 52
66 66 65 66 66 66 64 64 63 62 61 61 59 59 56 55 54 55 56 56 56 56 57 58 58 59 60 61 62 63 61 62 64 66 64 60 57 55 55 53 52 52 52
68 67 66 66 66 66 65 64 64 62 61 60 59 58 57 56 54 53 53 52 53 55 54 54 56 56 56 58 60 59 57 56 58 64 63 59 57 56 54 54 52 54 54
68 68 67 67 67 66 65 64 64 63 62 61 60 59 57 55 55 55 56 55 51 52 52 52 54 52 53 54 57 57 56 54 57 60 61 58 58 56 53 54 55 54 54
66 67 67 67 67 66 65 65 64 63 63 61 60 59 57 56 55 55 55 55 53 53 50 50 51 51 50 52 55 56 54 53 54 57 58 58 57 54 54 55 55 53 52
65 64 65 65 65 66 65 64 64 64 63 62 61 60 59 58 57 56 55 53 53 51 48 48 48 48 50 50 53 54 54 51 52 55 56 56 55 54 54 53 52 52 51
65 65 65 65 64 64 64 64 63 63 63 62 61 60 60 59 58 57 55 53 49 48 46 48 48 47 48 50 52 52 53 50 51 52 53 54 54 53 53 51 50 49 48
64 65 64 64 64 64 63 63 62 61 61 61 60 60 59 59 58 57 56 54 54 50 48 49 48 47 48 49 50 51 51 50 49 49 51 52 52 51 50 47 47 46 45
63 64 64 63 63 63 62 61 61 60 60 59 58 58 58 57 57 57 56 54 53 52 50 49 48 46 47 48 49 49 49 50 48 47 47 48 48 48 47 46 45 44 43
62 63 62 62 62 61 61 60 59 59 59 57 56 56 54 55 55 55 54 54 53 52 49 48 46 45 46 46 46 47 48 46 47 46 46 45 45 45 45 44 43 42 40
62 62 62 61 61 60 59 58 57 57 55 54 54 53 53 53 52 52 52 51 52 51 50 48 43 43 44 45 45 44 45 46 46 46 45 44 44 43 42 41 40 40 39
61 61 60 59 58 57 56 55 54 52 52 52 52 52 51 51 49 49 51 51 51 50 49 47 43 43 42 43 42 42 42 43 44 45 43 43 42 41 40 40 39 38 39
58 58 57 56 55 55 53 52 52 51 49 49 48 49 49 48 48 48 48 48 48 48 46 44 42 40 40 41 42 39 37 39 41 42 42 41 40 40 39 38 37 37 36
55 54 53 53 53 52 51 50 49 48 47 47 47 48 48 47 46 45 46 44 45 45 44 42 40 38 38 37 38 38 37 36 34 35 37 38 38 37 37 37 36 34 34
52 52 50 50 48 48 42 44 46 46 46 46 45 45 44 44 43 41 41 41 42 43 42 41 40 38 37 37 39 38 35 34 33 34 34 32 34 33 35 35 35 34 33
49 48 48 47 46 45 41 41 41 44 44 43 42 41 41 42 40 39 38 38 38 38 39 41 40 39 38 38 39 36 35 36 36 33 33 30 32 31 33 34 35 33 32
46 45 45 44 44 42 40 39 39 42 42 40 39 39 39 38 38 38 37 37 36 36 36 37 39 41 39 39 40 39 37 35 32 33 34 28 32 30 32 32 35 32 30
43 42 42 42 41 38 38 38 40 39 36 35 35 34 34 35 37 39 35 34 34 34 36 38 38 38 38 38 39 37 34 33 29 30 33 30 30 29 31 31 33 33 30
42 43 42 42 41 41 40 40 40 34 35 34 34 34 36 35 36 36 34 34 34 34 34 34 34 35 37 37 37 38 36 33 32 28 32 30 30 29 26 31 32 32 31
Lifted_Index
1 1 -0 -1 -0 0 1 2 2 3 3 3 2 1 -1 -1 -1 -2 -2 -2 -3 -4 -4 -4 -3 -3 -3 -2 -2 -2 -1 -1 -0 -0 0 0 1 1 2 3 3 4 4
1 1 0 -0 -0 0 1 2 2 3 3 3 2 1 -1 -1 -1 -1 -2 -2 -2 -3 -4 -4 -4 -3 -3 -3 -2 -2 -2 -1 -1 -0 0 1 1 2 3 3 4 4 5
2 1 1 0 0 0 1 1 2 3 2 2 1 0 -0 -1 -1 -1 -1 -2 -2 -3 -3 -4 -4 -4 -3 -3 -2 -2 -1 -1 -1 -0 0 1 2 2 3 4 5 6 6
2 2 1 1 1 0 0 1 1 2 1 1 1 0 -0 -1 -1 -1 -1 -2 -2 -2 -2 -3 -3 -4 -3 -3 -3 -2 -2 -1 -1 -0 0 1 2 2 3 5 6 7 7
2 1 1 0 0 0 -0 -0 0 0 0 0 0 0 -0 -1 -1 -1 -1 -2 -2 -2 -2 -2 -3 -3 -3 -3 -3 -3 -2 -2 -1 -0 0 1 1 2 3 5 6 7 7
1 1 0 -0 -1 -1 -1 -1 -1 -0 -0 -0 -0 -0 -1 -1 -1 -1 -1 -2 -2 -2 -2 -2 -2 -2 -2 -3 -3 -3 -2 -2 -1 -1 0 0 1 1 2 4 6 7 8
-0 -0 -0 -1 -1 -1 -1 -1 -1 -1 -1 -1 -1 -1 -1 -1 -1 -1 -1 -1 -1 -2 -2 -2 -2 -2 -2 -2 -2 -3 -3 -2 -2 -1 -0 0 0 1 2 4 7 8 8
-2 -1 -1 -1 -1 -2 -2 -1 -1 -1 -1 -1 -1 -1 -1 -1 -1 -1 -1 -1 -1 -1 -1 -1 -2 -2 -2 -2 -2 -2 -2 -2 -2 -1 -1 -0 -0 0 2 4 7 8 9
-2 -2 -2 -1 -1 -2 -2 -2 -1 -1 -1 -1 -1 -1 -1 -1 -1 -1 -1 -1 -1 -1 -1 -1 -1 -1 -1 -1 -1 -1 -2 -2 -2 -2 -1 -0 1 2 3 5 7 8 9
-3 -3 -2 -2 -2 -2 -2 -2 -2 -2 -2 -1 -1 -1 -1 -1 -1 -1 -1 -2 -1 -1 -1 -1 -1 -1 -0 -0 -0 -1 -1 -1 -2 -1 -0 1 3 5 6 6 7 8 8
-2 -3 -3 -3 -2 -2 -2 -2 -2 -2 -2 -2 -1 -1 -1 -1 -1 -2 -2 -2 -2 -1 -1 -1 -0 0 0 0 0 0 0 -0 -1 -1 1 3 5 7 8 7 7 8 8
-2 -2 -3 -3 -3 -3 -3 -3 -2 -2 -2 -2 -2 -2 -2 -2 -2 -2 -2 -2 -2 -1 -1 -0 -0 0 1 1 1 1 0 0 0 0 1 3 5 7 8 8 7 8 8
-2 -2 -2 -3 -3 -3 -3 -3 -3 -3 -3 -2 -2 -3 -2 -2 -2 -2 -2 -2 -1 -1 -0 0 1 1 1 2 1 1 1 1 1 1 2 3 5 7 8 8 8 8 9
-2 -2 -2 -3 -3 -4 -4 -4 -4 -3 -3 -3 -3 -3 -3 -3 -3 -2 -2 -1 -0 1 1 1 2 2 2 2 2 2 2 2 2 2 2 3 5 6 7 8 8 9 9
-2 -2 -2 -3 -3 -4 -4 -3 -3 -3 -3 -3 -3 -3 -3 -3 -3 -2 -1 0 1 2 2 2 3 3 3 3 3 3 3 2 2 2 3 4 5 6 7 8 8 8 8
-2 -2 -3 -3 -3 -3 -3 -3 -3 -2 -2 -2 -2 -2 -2 -2 -1 -0 1 1 2 3 3 4 4 4 4 4 4 3 3 3 3 3 3 4 5 6 7 8 8 7 8
-2 -2 -2 -2 -3 -3 -2 -2 -2 -2 -1 -1 -1 -1 0 1 2 2 3 3 3 3 4 4 4 4 4 4 4 4 3 3 3 4 4 5 5 6 7 7 7 7 7
-1 -1 -1 -1 -2 -2 -2 -2 -1 -1 0 1 1 2 3 4 4 5 5 5 5 5 5 5 5 5 5 5 5 4 4 4 4 5 5 5 5 6 6 6 6 6 7
-0 -0 -0 -0 -1 -1 -1 -1 0 2 3 3 4 5 5 6 6 6 6 6 6 6 6 6 6 6 5 5 5 5 5 5 5 6 6 5 5 6 6 6 5 6 8
0 0 0 -0 -0 0 1 2 3 5 5 6 6 7 7 7 8 8 7 7 7 7 7 7 7 6 6 5 5 5 5 5 6 6 6 6 6 5 6 6 6 7 9
0 1 1 1 1 2 4 5 6 7 7 8 8 9 9 9 9 9 9 9 9 8 8 8 7 7 6 6 5 5 6 6 6 7 7 6 6 6 6 6 6 8 10
1 1 2 3 4 5 6 7 8 9 9 10 10 10 10 11 12 12 12 11 11 10 9 9 8 8 7 6 6 6 6 6 6 7 6 6 6 6 6 7 7 9 10
3 3 4 6 7 8 9 10 11 11 11 11 11 10 11 13 14 14 13 13 12 11 11 10 9 8 7 7 7 7 7 7 7 7 6 6 6 7 7 7 8 10 11
5 6 7 8 9 11 12 12 12 11 10 10 10 11 12 14 15 15 14 14 13 12 11 11 9 8 8 8 8 8 7 7 7 6 6 5 6 6 7 8 9 11 12
7 8 9 10 11 12 12 11 10 9 8 9 10 13 14 15 15 15 15 14 13 12 11 10 10 9 9 9 9 8 7 7 6 5 5 5 5 6 7 9 10 12 13
8 10 11 12 12 12 11 10 9 8 8 9 12 15 16 16 16 16 15 15 13 12 11 10 10 10 10 10 9 8 7 6 5 4 4 5 5 6 8 10 11 12 13